Wind_Speed
24 24 24 23 24 23 22 20 17 14 12 11 11 12 13 13 13 12 10 14 17 14 14 16 15 14 13 11 11 13 20 22 20 17 16 15 14 13 10 10 6 2 5 3 6
23 24 24 23 23 24 24 21 19 16 14 12 11 12 13 13 13 12 12 14 14 14 15 16 15 14 14 11 11 14 20 26 22 18 19 19 15 6 12 7 9 5 6 7 9
20 22 23 22 23 23 25 23 21 19 16 15 13 12 12 12 13 13 13 14 15 14 15 17 16 14 14 11 12 15 23 29 24 21 21 18 17 18 17 15 11 13 10 12 11
18 19 20 21 22 22 24 25 23 21 19 18 16 14 13 13 13 13 14 15 16 17 16 16 17 16 16 13 13 15 26 31 28 25 26 23 23 23 22 20 19 16 12 10 12
17 17 18 19 20 21 22 23 23 23 21 20 19 17 16 15 15 16 17 16 16 18 18 17 18 17 14 13 13 17 28 34 32 33 30 26 27 25 23 24 19 16 17 12 13
16 16 17 17 19 19 20 21 23 23 22 22 21 21 20 19 18 18 19 17 17 19 20 19 17 14 15 14 15 19 29 37 36 34 33 31 27 28 27 27 20 19 21 17 14
19 20 19 18 19 19 20 21 21 22 22 22 22 22 22 20 22 22 21 20 19 20 20 17 16 15 16 16 18 18 35 38 38 37 35 32 32 33 28 28 21 21 21 19 16
16 18 21 22 21 22 21 22 23 23 23 23 23 23 23 24 24 23 22 22 21 20 19 19 17 16 19 19 21 20 27 43 41 41 40 37 31 30 28 25 21 20 23 19 20
18 18 19 21 22 22 23 23 24 25 26 26 27 27 27 25 24 25 24 24 22 22 20 18 18 19 20 21 23 23 28 42 46 46 45 41 36 31 28 25 24 23 25 25 21
17 16 18 19 19 20 21 22 23 25 26 27 30 30 29 26 26 26 26 25 24 22 20 19 19 19 19 19 23 27 30 34 44 50 49 45 43 38 35 32 30 30 31 32 31
21 21 20 18 20 20 19 20 21 21 23 24 25 26 27 27 27 26 26 26 26 23 21 21 21 21 24 23 25 29 32 35 37 51 51 50 47 44 42 40 38 36 36 37 32
23 22 22 22 20 18 19 20 20 20 21 21 21 23 24 25 24 25 26 25 23 23 23 22 24 26 25 24 28 30 34 34 36 40 51 52 51 48 46 44 42 37 37 39 38
25 25 24 23 21 19 19 19 19 20 21 20 20 20 22 21 21 23 24 24 23 23 22 22 28 27 27 26 28 29 29 30 32 34 37 48 53 52 49 48 46 41 40 43 43
24 25 25 23 21 20 21 21 21 20 20 19 19 19 21 22 22 22 23 24 23 23 22 23 26 26 27 26 28 27 27 30 30 31 34 36 45 52 54 52 49 43 41 41 40
20 22 24 23 21 22 23 22 21 20 21 20 19 19 20 21 21 22 22 22 23 24 23 26 26 25 24 24 27 26 29 30 34 36 38 39 39 42 45 45 45 43 41 39 36
18 19 21 21 21 23 24 22 20 19 20 18 19 19 20 21 21 21 22 23 23 22 21 24 27 26 26 24 26 26 30 33 39 40 43 42 42 44 43 43 41 40 40 42 41
20 20 20 21 23 24 24 22 20 19 20 20 19 18 20 21 22 22 23 23 23 22 22 23 26 27 27 26 26 27 31 34 38 45 50 45 43 46 44 44 44 43 42 42 44
20 22 21 20 24 26 25 23 22 22 20 19 18 18 19 19 20 20 19 20 21 20 22 24 25 27 29 30 28 30 32 36 38 42 43 45 51 50 47 46 41 40 40 42 44
19 20 20 19 23 26 26 24 23 24 24 21 21 22 22 20 19 22 23 23 22 22 23 23 25 28 28 32 34 33 37 37 38 41 42 45 46 47 44 42 42 39 40 43 46
20 20 19 20 21 23 24 22 24 25 25 24 24 25 25 25 24 24 24 23 23 23 24 25 27 28 29 30 33 36 35 36 38 42 42 44 44 46 43 42 43 43 43 45 47
20 20 19 19 21 22 22 23 23 23 24 24 25 27 27 27 27 26 27 25 24 25 25 26 29 28 30 31 30 32 36 38 40 43 44 45 49 47 47 48 47 48 47 45 47
19 18 19 18 19 21 22 22 23 24 25 25 25 27 28 29 30 31 30 29 27 27 29 30 31 31 31 32 33 34 34 34 37 40 43 45 49 46 44 42 47 42 45 49 50
13 14 14 15 17 20 23 24 24 24 25 27 28 29 30 32 34 34 34 34 34 32 33 32 35 34 33 34 34 34 33 34 36 38 41 42 45 45 46 47 48 49 48 48 48
12 11 13 13 16 18 21 23 24 25 26 29 30 31 33 35 37 39 39 39 39 38 36 37 38 39 37 36 35 36 37 38 39 40 40 42 42 42 43 44 45 45 45 45 46
11 12 13 13 16 17 19 20 22 24 27 29 32 34 35 37 39 41 42 42 42 42 40 40 40 41 41 39 39 39 40 39 40 40 40 40 40 41 42 42 43 44 45 47 48
11 11 12 14 16 18 20 22 24 25 27 29 31 33 36 38 40 40 42 42 42 42 42 41 42 41 41 42 42 41 41 41 41 40 39 40 41 42 43 43 43 44 47 48 49
12 13 14 16 19 21 23 25 27 29 31 32 34 36 39 41 43 43 43 42 42 42 41 41 41 41 41 42 43 44 43 42 42 42 42 42 42 43 43 43 42 43 46 50 54
Wind_Direction
221 223 227 232 235 236 233 236 241 249 258 257 248 241 239 240 243 242 240 230 235 239 243 249 252 257 251 239 226 209 201 192 198 198 194 198 186 186 177 178 185 231 321 5 46
223 226 230 232 234 233 231 231 235 242 249 252 248 244 242 242 245 244 234 241 243 239 242 249 247 249 248 231 220 207 201 191 199 199 189 199 199 202 194 219 192 190 217 183 156
228 231 233 232 232 231 229 229 231 236 242 247 248 245 245 248 246 244 243 248 250 247 242 250 248 242 245 234 219 203 191 197 200 195 188 196 198 227 223 245 236 272 221 200 181
236 233 235 234 232 230 228 228 231 234 237 243 243 244 245 248 248 250 248 249 250 253 245 245 247 242 238 233 221 201 191 200 205 204 207 197 207 212 242 235 253 276 216 218 210
232 231 233 234 235 236 235 233 234 236 239 242 244 243 243 246 247 247 247 245 250 256 252 244 243 244 246 238 230 205 196 197 207 216 216 213 216 231 237 251 262 269 257 235 244
231 233 234 234 235 236 237 238 239 239 241 243 244 245 245 242 245 247 249 243 247 253 255 250 249 245 239 228 229 210 204 204 215 222 218 220 219 226 240 251 275 274 262 264 247
235 235 235 240 238 237 238 239 241 243 243 244 246 247 248 248 245 246 248 248 244 250 253 250 239 231 230 221 224 206 203 206 218 225 232 234 228 234 243 260 280 277 276 277 249
239 238 236 238 242 239 240 241 242 244 246 248 250 250 251 252 252 250 250 252 246 251 248 247 239 227 223 216 218 212 209 207 219 229 235 241 244 247 249 262 272 280 283 281 285
244 243 241 240 243 242 241 243 244 245 246 248 250 253 254 256 258 256 253 251 248 246 242 239 239 236 230 220 216 216 210 210 216 227 232 241 246 249 253 259 266 271 274 281 286
242 247 246 244 245 244 244 245 247 247 246 247 249 251 252 255 254 255 256 254 251 246 241 235 232 233 232 229 223 220 218 218 217 222 229 236 246 249 251 256 262 268 273 278 281
246 249 251 249 247 247 247 247 247 248 247 248 249 251 251 251 250 250 250 250 250 247 241 237 232 230 227 224 227 227 223 220 218 220 227 236 243 250 256 261 262 265 272 278 277
246 247 249 251 253 253 250 249 248 247 246 247 248 249 250 249 251 248 244 247 245 245 241 237 233 237 237 232 232 231 235 233 226 223 228 233 239 244 252 257 260 261 264 272 276
252 252 250 250 252 251 249 246 243 242 243 243 243 244 245 245 246 244 244 247 247 245 243 236 240 239 240 237 241 242 246 244 240 236 232 234 235 240 246 251 255 259 261 263 269
255 254 254 252 251 249 249 247 247 244 245 244 242 240 242 242 242 239 239 242 245 243 238 238 243 241 241 240 244 248 247 246 247 246 240 242 240 243 245 248 253 256 257 259 269
260 256 255 254 251 249 250 249 249 246 246 244 243 241 244 244 244 243 240 238 241 244 240 239 243 242 241 238 242 241 240 240 232 233 236 239 245 243 246 249 253 253 253 257 262
266 261 260 257 253 250 249 249 248 247 247 246 243 241 243 246 247 245 243 241 240 241 240 243 248 243 241 237 237 237 238 235 230 233 237 239 243 248 249 251 254 258 259 259 263
272 266 261 256 252 253 250 248 247 249 249 248 248 247 246 244 245 243 241 242 241 240 238 237 242 246 244 235 238 236 234 235 236 238 241 244 248 254 258 260 265 268 268 266 265
276 271 265 259 254 252 251 249 247 248 249 253 257 255 251 251 245 242 243 243 244 245 245 243 240 243 244 241 237 241 236 237 240 246 252 251 253 257 263 267 271 272 271 270 269
280 274 269 262 257 254 253 251 248 249 249 249 252 255 254 250 246 248 247 246 249 249 247 247 246 243 241 237 240 238 237 241 244 247 250 251 252 257 261 267 270 271 271 270 268
283 277 270 263 261 262 258 255 251 250 250 248 246 250 252 253 248 245 246 248 246 249 255 252 248 245 245 241 238 239 240 241 244 249 251 256 260 265 267 268 267 269 273 276 275
283 278 271 263 260 260 259 255 255 253 252 252 249 250 251 253 255 252 252 252 251 250 251 255 257 253 251 248 246 243 242 241 244 246 251 257 260 264 268 272 273 272 273 275 274
285 275 272 266 261 259 259 256 253 253 253 250 249 251 253 256 257 260 260 259 260 257 257 258 260 258 257 255 252 249 250 250 248 250 253 256 262 267 271 270 270 277 277 275 276
299 286 280 271 269 261 258 258 257 255 254 254 252 250 250 253 259 260 261 263 263 261 259 258 259 262 258 258 259 258 255 254 254 255 256 258 262 265 267 270 272 275 277 277 278
301 295 280 274 272 271 265 262 260 256 255 256 255 253 253 253 254 258 258 259 259 259 257 257 258 261 263 262 261 260 260 259 259 259 261 262 265 267 270 272 274 276 278 279 279
294 293 286 283 277 275 276 272 268 265 261 257 258 259 258 257 256 256 258 258 260 260 260 260 259 259 261 261 260 261 262 263 263 264 266 269 270 272 273 273 275 277 279 280 280
318 314 305 299 293 287 284 280 277 272 267 264 265 265 263 262 261 259 259 260 259 260 260 260 261 260 261 262 264 265 265 264 266 269 270 271 272 273 274 275 277 279 280 282 284
324 318 314 311 304 297 292 286 282 278 275 273 270 268 266 265 264 262 261 260 259 258 258 257 258 259 259 259 262 265 266 269 271 271 271 272 273 275 277 279 280 281 283 284 285
Height
5851 5854 5856 5857 5859 5861 5863 5865 5866 5868 5868 5869 5870 5871 5872 5873 5874 5876 5878 5879 5880 5882 5883 5884 5886 5887 5888 5890 5893 5895 5898 5901 5904 5906 5909 5911 5912 5914 5915 5916 5916 5916 5916 5915 5912
5848 5850 5852 5854 5855 5857 5860 5862 5863 5865 5866 5867 5868 5869 5870 5871 5872 5873 5875 5875 5877 5879 5880 5881 5883 5884 5885 5888 5890 5892 5895 5898 5901 5904 5907 5910 5913 5914 5915 5913 5908 5909 5909 5905 5903
5845 5847 5848 5850 5852 5854 5856 5858 5860 5862 5863 5864 5865 5866 5867 5868 5870 5871 5872 5873 5875 5876 5878 5879 5880 5881 5882 5885 5887 5889 5894 5895 5898 5902 5906 5907 5908 5903 5902 5903 5904 5904 5904 5901 5900
5843 5844 5845 5847 5848 5850 5852 5854 5856 5858 5860 5861 5862 5863 5864 5866 5869 5868 5869 5871 5872 5873 5875 5876 5877 5878 5880 5882 5884 5887 5889 5892 5896 5898 5899 5903 5902 5901 5900 5901 5902 5904 5901 5900 5899
5840 5841 5842 5844 5845 5847 5849 5850 5852 5854 5856 5857 5859 5860 5862 5863 5864 5865 5867 5867 5869 5870 5871 5873 5873 5876 5878 5880 5882 5884 5885 5888 5891 5887 5893 5897 5897 5897 5898 5898 5900 5900 5901 5899 5899
5837 5839 5840 5841 5842 5844 5845 5847 5848 5850 5852 5853 5855 5856 5858 5860 5861 5862 5863 5864 5865 5866 5867 5869 5871 5874 5875 5877 5878 5881 5882 5882 5883 5885 5888 5891 5893 5894 5895 5895 5899 5899 5899 5899 5898
5834 5836 5837 5838 5839 5841 5842 5843 5845 5847 5848 5850 5851 5853 5854 5856 5857 5858 5859 5860 5861 5862 5864 5865 5867 5870 5871 5873 5874 5876 5878 5880 5879 5881 5884 5887 5889 5887 5892 5892 5894 5896 5897 5897 5896
5831 5832 5833 5834 5836 5837 5838 5840 5841 5843 5845 5846 5848 5849 5850 5851 5853 5854 5855 5857 5857 5859 5861 5862 5863 5865 5866 5869 5870 5871 5873 5877 5875 5876 5878 5880 5882 5885 5888 5889 5890 5892 5893 5895 5895
5828 5829 5829 5830 5831 5833 5834 5836 5837 5839 5840 5841 5843 5844 5845 5847 5850 5850 5851 5852 5854 5855 5855 5857 5859 5860 5862 5864 5866 5867 5867 5870 5872 5871 5874 5875 5878 5881 5883 5885 5887 5888 5890 5890 5892
5825 5825 5826 5827 5827 5828 5830 5832 5832 5833 5834 5836 5837 5841 5840 5842 5844 5845 5846 5847 5849 5851 5852 5854 5855 5855 5857 5860 5862 5861 5862 5864 5867 5867 5868 5870 5873 5876 5879 5881 5882 5884 5885 5886 5888
5821 5822 5822 5823 5823 5825 5827 5828 5829 5829 5829 5831 5833 5834 5835 5836 5838 5839 5841 5842 5844 5846 5848 5850 5851 5850 5851 5854 5855 5857 5857 5858 5861 5862 5863 5864 5867 5869 5872 5875 5877 5879 5879 5880 5882
5817 5817 5818 5819 5820 5822 5822 5822 5822 5824 5825 5826 5827 5828 5830 5831 5833 5834 5836 5838 5839 5840 5842 5845 5844 5845 5848 5851 5851 5852 5853 5855 5858 5858 5861 5862 5863 5865 5866 5868 5871 5873 5874 5875 5876
5812 5813 5813 5814 5816 5818 5817 5817 5818 5819 5820 5821 5822 5823 5825 5827 5828 5829 5831 5831 5833 5835 5837 5839 5838 5841 5843 5846 5847 5849 5851 5852 5854 5855 5856 5858 5858 5859 5861 5862 5864 5866 5868 5869 5870
5807 5808 5808 5810 5813 5812 5812 5812 5813 5815 5816 5818 5818 5819 5819 5820 5822 5824 5825 5827 5828 5830 5833 5834 5834 5836 5839 5842 5843 5844 5847 5846 5849 5851 5852 5852 5853 5854 5855 5855 5857 5859 5861 5863 5864
5803 5803 5804 5805 5807 5806 5807 5808 5810 5811 5812 5813 5814 5814 5815 5816 5818 5819 5821 5822 5823 5825 5829 5828 5829 5832 5833 5836 5838 5841 5841 5844 5845 5845 5845 5846 5846 5847 5848 5849 5851 5852 5853 5855 5856
5798 5798 5799 5800 5801 5801 5802 5804 5805 5808 5807 5809 5809 5809 5810 5811 5813 5814 5816 5817 5818 5820 5822 5823 5824 5826 5828 5831 5832 5835 5836 5837 5838 5838 5836 5837 5840 5838 5841 5843 5844 5846 5846 5846 5846
5793 5793 5793 5794 5795 5796 5797 5800 5802 5802 5803 5804 5805 5806 5806 5807 5808 5809 5810 5811 5813 5815 5817 5818 5819 5820 5822 5826 5826 5828 5830 5831 5832 5829 5829 5832 5833 5832 5834 5836 5837 5837 5837 5837 5837
5787 5787 5788 5789 5789 5790 5792 5795 5797 5797 5798 5799 5800 5801 5802 5803 5804 5804 5806 5807 5808 5810 5811 5812 5814 5814 5816 5818 5821 5821 5824 5826 5825 5824 5826 5827 5823 5826 5828 5827 5828 5828 5828 5828 5827
5782 5782 5783 5784 5783 5784 5787 5789 5790 5791 5793 5794 5795 5795 5796 5798 5800 5801 5802 5803 5804 5805 5806 5806 5807 5808 5809 5811 5814 5815 5815 5818 5819 5818 5818 5816 5818 5818 5819 5820 5819 5819 5818 5817 5816
5777 5777 5777 5778 5778 5778 5781 5782 5783 5784 5785 5788 5789 5790 5790 5792 5794 5795 5796 5798 5799 5799 5799 5800 5801 5800 5801 5803 5804 5805 5809 5809 5809 5809 5809 5808 5809 5807 5811 5810 5810 5809 5807 5806 5805
5772 5772 5772 5772 5772 5773 5775 5776 5776 5777 5778 5780 5781 5782 5784 5785 5786 5788 5789 5791 5792 5793 5792 5792 5792 5794 5793 5793 5795 5797 5798 5800 5801 5801 5800 5801 5798 5800 5800 5800 5800 5799 5797 5795 5793
5767 5767 5766 5767 5769 5768 5769 5769 5770 5771 5771 5772 5774 5775 5776 5777 5778 5779 5780 5781 5783 5784 5784 5784 5782 5783 5784 5785 5785 5786 5787 5789 5790 5791 5791 5790 5789 5790 5790 5789 5787 5785 5785 5785 5782
5763 5762 5762 5762 5763 5762 5762 5763 5764 5764 5764 5765 5766 5767 5768 5768 5769 5770 5770 5772 5772 5774 5774 5775 5773 5773 5774 5776 5776 5777 5778 5778 5779 5779 5779 5780 5779 5779 5778 5777 5776 5776 5774 5772 5770
5760 5759 5758 5758 5758 5757 5757 5757 5757 5757 5758 5757 5757 5758 5759 5759 5759 5758 5760 5761 5762 5763 5764 5764 5764 5764 5765 5765 5766 5767 5767 5768 5768 5767 5768 5768 5768 5768 5767 5766 5765 5764 5762 5761 5759
5757 5757 5755 5755 5754 5752 5752 5752 5751 5750 5750 5749 5749 5749 5749 5749 5749 5749 5749 5750 5751 5752 5753 5755 5754 5754 5754 5755 5755 5755 5756 5756 5756 5756 5757 5757 5756 5756 5755 5754 5753 5751 5750 5748 5746
5755 5754 5752 5751 5750 5748 5747 5746 5744 5743 5742 5742 5741 5740 5739 5738 5738 5738 5738 5738 5739 5741 5742 5742 5742 5744 5744 5744 5744 5744 5744 5744 5745 5745 5745 5744 5744 5743 5742 5742 5741 5740 5738 5735 5733
5754 5752 5750 5748 5745 5744 5742 5739 5737 5735 5734 5732 5731 5730 5729 5727 5726 5726 5726 5726 5727 5728 5729 5730 5731 5732 5732 5733 5733 5733 5732 5733 5733 5733 5732 5732 5732 5730 5730 5729 5728 5727 5725 5723 5720